Location: Risskov
(56.1972°N, 10.2480°E)
Time: 00:13:10
(UTC+00:00)

USA 81 - Pass Details

Date: 05 July 2020
Orbit: 786 x 788 km, 85.0° (Epoch: 17 July)

Event Time Altitude Azimuth Distance (km) Brightness Sun altitude
Exits shadow 21:19:52 - 191° (S) 3,217 6.8 -6.9°
Reaches altitude 10° 21:22:05 10° 192° (SSW) 2,345 6.1 -7.0°
Maximum altitude 21:27:21 77° 278° (W) 814 4.3 -7.4°
Drops below altitude 10° 21:32:40 10° 6° (N) 2,362 7.6 -7.7°
Sets 21:35:03 0° 8° (N) 3,295 8.3 -7.8°
